Dewpoint
35 32 24 22 24 25 24 26 25 26 29 29 30 31 32 31 29 29 29 29 41 42 44 48 53 55 55 51 53 55 55 55 54 57 58 58 55 54 53 52 51 50 49 48
32 32 27 22 21 25 24 26 26 25 26 32 32 33 32 31 30 29 28 29 38 44 46 51 54 54 55 56 56 58 58 58 57 56 55 54 52 50 48 48 47 46 45 45
28 31 28 24 23 22 28 27 27 27 30 31 30 31 32 31 31 30 30 30 32 44 48 52 54 54 54 54 55 55 56 56 55 54 53 51 50 48 47 44 43 43 43 44
29 30 26 27 26 23 26 26 26 24 24 28 29 30 30 33 32 31 31 32 41 47 51 53 53 52 51 52 51 50 51 50 50 49 49 48 46 44 41 41 40 39 38 39
28 29 30 28 28 28 26 24 27 26 24 23 25 25 28 32 32 31 33 38 45 50 51 51 50 49 49 48 47 47 48 47 46 45 44 42 40 39 38 38 38 38 38 38
31 25 26 30 30 31 30 24 26 26 27 27 27 24 26 32 35 38 44 47 48 48 49 48 46 46 46 45 45 45 43 42 41 40 39 38 38 37 37 37 37 38 37 37
29 27 32 37 35 33 27 27 33 31 30 29 29 31 29 38 42 44 45 45 45 47 47 44 44 44 43 43 42 42 41 40 40 40 39 38 38 38 38 37 36 35 33 32
31 29 27 39 37 33 38 42 43 42 33 32 33 37 39 41 42 42 42 42 43 43 42 41 42 42 41 40 41 41 40 40 40 40 39 39 38 38 38 36 33 31 29 27
32 30 39 41 41 40 43 44 44 42 42 38 37 38 40 40 41 41 41 41 41 40 40 40 40 40 39 40 40 41 40 39 39 39 39 38 38 36 35 33 31 29 27 25
36 34 36 38 39 43 41 43 44 43 43 40 40 40 39 40 40 40 39 39 39 39 39 39 39 39 40 40 40 39 38 38 36 29 29 27 26 29 28 27 27 29 27 24
35 34 36 36 38 41 38 44 44 42 44 42 42 42 42 41 40 38 38 39 39 39 39 38 39 39 38 38 37 33 30 27 25 26 25 20 19 21 23 25 25 25 25 24
32 33 31 32 36 39 38 42 44 43 44 43 42 41 40 40 39 38 39 39 38 38 37 36 36 34 34 32 30 27 25 24 24 23 23 18 18 21 25 24 25 25 24 22
38 40 39 39 36 41 40 40 45 44 42 41 44 43 41 38 38 38 39 37 35 30 28 27 28 28 28 28 26 24 24 24 24 24 22 22 22 22 21 23 23 22 22 22
38 40 40 39 38 39 39 38 40 40 40 41 40 40 39 39 38 36 33 27 24 23 23 23 23 23 25 25 24 25 25 26 24 24 23 24 25 23 23 23 22 23 22 19
36 38 39 40 38 38 39 40 37 35 35 34 38 38 37 33 27 24 22 20 19 19 20 20 21 22 24 24 23 23 21 22 24 24 24 25 25 25 25 24 24 23 22 20
36 36 36 35 34 33 33 32 30 28 28 27 26 25 24 22 20 20 20 20 20 21 23 24 24 24 25 25 25 25 25 25 25 24 24 24 24 23 22 22 21 21 21 18
35 33 34 34 32 30 29 28 27 26 25 24 23 23 22 20 20 20 21 21 22 23 24 23 24 25 26 25 24 23 24 23 23 23 22 22 21 20 20 20 19 19 17 15
34 33 33 31 30 28 27 26 25 24 23 23 23 22 21 21 20 20 20 20 19 18 20 21 22 23 23 23 23 22 22 21 21 20 19 18 18 19 18 18 17 15 15 15
26 26 27 26 27 25 24 24 24 23 23 22 21 20 20 20 19 19 19 18 17 15 17 20 22 21 21 22 21 20 19 19 19 19 18 16 17 16 15 15 15 14 14 13
24 24 23 22 23 23 22 23 22 22 22 21 20 18 17 18 18 17 17 16 17 18 19 19 18 18 19 20 20 19 18 17 17 16 15 15 14 13 13 13 12 10 9 9
22 22 22 22 22 22 22 22 21 20 21 21 19 18 18 18 19 18 15 13 16 17 16 16 16 16 18 19 18 17 16 15 14 13 12 11 10 9 8 6 5 4 2 -0
22 21 21 21 21 21 22 22 21 21 20 19 19 18 18 17 18 17 17 14 15 15 14 13 13 15 16 16 15 13 12 11 11 10 8 8 7 5 4 1 -0 -3 -8 -13
22 22 21 20 20 20 20 20 20 19 18 17 17 17 16 17 17 14 11 15 14 12 11 11 13 13 12 11 10 9 8 6 4 3 0 -0 -1 -3 -3 -4 -4 -6 -9 -8
20 21 21 21 19 18 17 18 19 18 18 19 18 17 15 13 14 15 14 12 11 10 10 11 10 9 8 7 5 4 3 2 -0 -5 -3 -9 -16 -17 -14 -17 -12 -13 -9 -8
18 17 17 17 16 16 18 18 17 16 16 16 16 16 16 16 13 13 13 12 12 9 8 7 5 1 -1 -3 -3 -6 -8 -9 -10 -14 -16 -18 -20 -21 -21 -18 -15 -13 -14 -16
16 14 13 14 14 14 14 14 14 15 13 12 12 12 12 14 14 13 12 10 9 8 7 6 4 0 -4 -3 -7 -12 -14 -12 -11 -10 -17 -20 -21 -19 -19 -18 -19 -20 -22 -24
12 12 11 11 9 9 10 10 8 9 9 6 6 8 7 6 7 7 2 2 1 -1 -4 -10 -9 -8 -9 -14 -14 -16 -14 -14 -12 -13 -20 -23 -21 -20 -21 -23 -25 -27 -27 -25
Lifted_Index
3 3 2 2 1 1 1 1 1 2 2 1 0 -0 -1 -1 -0 0 0 0 -0 -1 -1 -2 -3 -4 -4 -3 -3 -3 -3 -3 -2 -2 -2 -3 -3 -3 -3 -2 -2 -1 -0 0
2 2 2 2 2 2 1 1 1 1 1 1 1 -0 -0 -1 -0 0 0 0 -0 -1 -1 -2 -3 -4 -4 -4 -3 -3 -3 -3 -3 -3 -3 -3 -3 -3 -2 -2 -1 -0 1 1
1 1 1 2 3 2 1 1 1 1 1 1 1 0 0 -0 -0 -0 0 0 0 -1 -2 -3 -3 -3 -3 -4 -3 -3 -3 -3 -3 -3 -3 -3 -2 -2 -1 0 1 2 3 3
2 1 1 2 3 2 2 1 1 1 1 1 1 1 1 0 0 -0 0 1 0 -1 -2 -3 -3 -3 -3 -3 -3 -3 -3 -3 -2 -2 -2 -2 -1 0 2 3 4 4 4 4
3 2 1 2 2 2 2 2 1 1 1 1 1 1 1 1 0 0 0 0 0 -1 -2 -3 -3 -3 -3 -3 -3 -2 -2 -2 -2 -1 -1 0 2 3 4 5 5 5 6 6
2 2 2 1 1 1 1 1 1 1 1 1 1 1 1 1 0 0 -0 -0 -1 -2 -3 -3 -3 -3 -3 -3 -2 -2 -1 -1 -1 0 2 3 5 6 6 6 6 7 7 8
2 2 2 2 1 0 1 1 1 0 0 0 1 0 0 0 0 -0 -1 -1 -2 -2 -3 -3 -3 -3 -2 -2 -1 -1 0 1 2 3 5 6 7 7 7 7 8 8 9 10
2 2 2 2 1 1 1 1 0 -0 -0 -0 -0 -0 -0 -0 -0 -1 -1 -1 -2 -2 -2 -2 -2 -2 -1 -0 1 1 2 4 5 6 7 7 7 7 8 8 9 10 11 12
2 2 2 2 2 2 1 0 -0 -0 -1 -0 -0 -1 -1 -0 -0 -1 -1 -1 -1 -1 -1 -1 -0 0 1 2 3 4 5 6 7 8 8 8 8 8 9 10 10 12 13 13
1 1 1 2 2 2 2 1 0 -0 -1 -1 -1 -1 -1 -0 -0 -0 -1 -1 -0 0 0 0 1 2 3 4 5 6 7 7 8 8 8 9 10 10 11 12 12 13 14 15
0 1 2 2 2 2 2 2 1 -0 -0 -1 -1 -1 -0 -0 -0 -0 -0 0 1 1 1 2 2 3 5 5 6 7 7 8 8 8 9 10 12 13 13 14 14 15 15 16
0 1 1 2 2 2 2 1 1 0 -0 -0 -0 -0 0 0 0 -0 0 1 1 2 2 3 4 4 5 6 7 7 7 8 9 10 11 12 13 14 15 16 16 17 17 18
0 0 0 0 0 1 1 1 1 1 1 1 0 0 0 1 1 0 1 1 2 2 3 4 4 5 6 7 8 8 8 9 11 12 13 14 15 15 16 17 18 18 19 19
0 0 -0 -0 -0 0 1 1 1 1 2 2 1 1 1 1 1 1 1 2 2 3 3 4 5 6 8 9 10 10 11 12 13 14 15 16 16 17 17 18 18 18 19 20
0 0 0 0 0 1 1 1 1 2 2 2 2 1 1 1 1 1 2 3 3 4 4 5 7 9 11 13 13 13 13 14 15 17 17 18 18 18 17 17 17 17 18 19
1 1 1 0 1 1 1 1 1 2 2 2 2 2 1 1 1 2 3 4 5 5 7 8 9 12 14 15 15 15 16 16 18 18 18 18 18 18 17 17 18 18 19 20
1 1 1 1 1 1 1 2 2 2 2 2 2 2 2 1 2 3 5 7 8 9 10 12 13 15 16 17 17 17 17 18 18 19 19 18 18 18 18 18 19 19 20 21
2 2 3 2 2 2 2 2 2 2 2 2 2 2 2 3 4 5 8 10 11 12 14 15 16 17 18 18 18 18 18 18 19 19 19 19 19 19 19 19 20 20 21 22
5 5 5 5 4 4 3 3 4 4 4 4 4 4 5 6 8 10 11 12 13 14 16 18 18 18 19 19 20 20 19 19 19 19 20 20 20 20 20 20 21 21 22 23
8 8 8 8 7 7 7 7 7 8 8 8 8 8 9 11 12 13 13 14 15 16 18 19 19 19 19 20 21 20 20 20 19 20 20 20 21 21 21 22 23 23 24 24
11 11 11 11 10 11 11 12 12 12 12 12 12 12 13 14 15 15 15 16 17 19 20 20 20 20 21 21 21 21 21 21 21 21 21 22 22 22 23 24 24 25 25 25
13 13 13 13 13 14 14 15 14 14 14 15 15 15 15 16 16 16 17 18 20 21 21 21 21 22 22 22 23 22 22 23 23 23 23 24 24 24 25 25 25 25 25 25
14 14 15 15 15 15 15 16 16 16 16 16 16 17 17 17 17 17 18 20 21 22 22 22 23 24 24 24 24 24 24 24 25 25 25 25 25 25 25 25 25 25 25 25
15 15 15 16 16 15 16 16 17 17 17 17 17 18 18 18 18 19 21 22 23 23 24 24 25 26 26 26 26 25 25 25 25 25 25 25 25 25 25 24 24 24 24 24
15 15 16 16 16 16 16 17 17 17 17 18 19 20 20 21 21 22 23 24 24 25 25 26 26 26 26 26 26 25 25 25 25 25 24 24 24 24 24 23 23 23 23 23
16 16 16 16 17 17 18 18 18 18 19 19 20 21 22 23 23 24 24 25 25 25 25 25 25 25 25 25 24 24 24 24 24 23 23 23 23 23 23 23 23 22 22 22
16 16 17 17 18 19 19 19 19 19 20 20 21 22 23 24 24 24 24 25 25 25 25 25 25 25 24 24 23 23 23 23 23 23 23 23 22 22 22 22 22 22 22 22